Home   Weather   Rockford   Past weeks
Flag for USA

Past Weather in Rockford, Illinois, USA — Yesterday and Last 2 Weeks

Now
51 °F

Fog.


Feels Like: 50 °F
Forecast: 61 / 48 °F
Wind: 5 mph from East

Location: Greater Rockford Airport

Current Time: Oct 21, 2019 at 2:49:44 am

Latest Report: Oct 21, 2019 at 1:54 am


Visibility: 6 mi

Pressure: 29.82 "Hg

Humidity: 92%

Dew Point: 49 °F

Location of RockfordLocation

Past Weather in Rockford — Graph

°F

Rockford Temperature Yesterday

Maximum temperature yesterday: 68 °F (at 2:54 pm)
Minimum temperature yesterday: 49 °F (at 6:54 am)
Average temperature yesterday: 56 °F

High & Low Weather Summary for the Past Weeks

 TemperatureHumidityPressure
High71 °F (Oct 8, 2:54 pm)97% (Oct 7, 5:54 am)30.26 "Hg (Oct 7, 5:54 am)
Low33 °F (Oct 14, 4:54 am)33% (Oct 12, 3:54 pm)29.71 "Hg (Oct 15, 3:54 pm)
Average51 °F72%29.99 "Hg
* Reported Oct 6 1:54 am — Oct 21 1:35 am, Rockford. Weather by CustomWeather, © 2019

Note: Actual official high and low records may vary slightly from our data, if they occured in-between our weather recording intervals... More about our weather records

Advertising

Rockford Weather History for the Previous 24 Hours

Scroll right to see more
 ConditionsComfort  
Time TempWeatherWind HumidityBarometerVisibility
1:35 am
Mon, Oct 21
50 °FFog.6 mph93%29.83 "Hg5 mi
1:22 am50 °FFog.3 mph93%29.85 "Hg4 mi
12:54 am49 °FFog.9 mph93%29.83 "Hg4 mi
12:36 am49 °FMostly cloudy.8 mph90%29.84 "Hg7 mi
11:54 pm
Sun, Oct 20
50 °FPartly cloudy.8 mph86%29.88 "Hg9 mi
10:54 pm51 °FPassing clouds.8 mph80%29.89 "Hg10 mi
9:54 pm53 °FPassing clouds.7 mph72%29.92 "Hg10 mi
8:54 pm55 °FPassing clouds.9 mph67%29.90 "Hg10 mi
7:54 pm57 °FPassing clouds.12 mph55%29.92 "Hg10 mi
6:54 pm58 °FPassing clouds.7 mph56%29.90 "Hg10 mi
5:54 pm61 °FPartly sunny.6 mph48%29.91 "Hg10 mi
4:54 pm65 °FPartly sunny.8 mph37%29.91 "Hg10 mi
3:54 pm68 °FPartly sunny.7 mph36%29.90 "Hg10 mi
2:54 pm68 °FScattered clouds.8 mph38%29.90 "Hg10 mi
1:54 pm67 °FPassing clouds.6 mph42%29.91 "Hg10 mi
12:54 pm65 °FPassing clouds.5 mph52%29.94 "Hg10 mi
11:54 am61 °FPassing clouds.No wind67%29.95 "Hg10 mi
10:54 am56 °FPassing clouds.No wind77%29.95 "Hg10 mi
10:19 am52 °FScattered clouds.3 mph86%29.95 "Hg10 mi
9:54 am52 °FPartly sunny.No wind86%29.96 "Hg10 mi
8:54 am50 °FLow clouds.3 mph89%29.94 "Hg10 mi
7:54 am49 °FLow clouds.7 mph93%29.92 "Hg10 mi
6:54 am49 °FLow clouds.7 mph93%29.90 "Hg10 mi
5:54 am50 °FLow clouds.9 mph89%29.88 "Hg10 mi
4:54 am50 °FLow clouds.8 mph89%29.86 "Hg10 mi
3:54 am51 °FLow clouds.5 mph89%29.83 "Hg10 mi
2:54 am52 °FOvercast.8 mph89%29.84 "Hg10 mi
2:28 am53 °FOvercast.8 mph86%29.82 "Hg10 mi
Weather by CustomWeather, © 2019

See weather overview